STARLINK-33650 (63321 NORAD) Tracking and Keplerian Element Data

This shows tracking and keplerian element data for the satellite.

Feedback or suggestion? Click here.




ElementValue
Catalog63321
NameSTARLINK-33650
Epoch Orbit4356
Epoch Day354.07274979
Epoch Year2025
RAAN120.2663
Inclination43.0057
Eccentricity0.0003204
Argument of Perigee268.3462
Mean Anonmoly91.7022
Mean Motion15.27600758
Decay Rate0.00022553
L11 63321U 25057Q 25354.07274979 .00022553 00000+0 82598-3 0 9999
L22 63321 43.0057 120.2663 0003204 268.3462 91.7022 15.27600758 43566



Live tracking and technical data element details for STARLINK-33650 (NORAD 63321). STARLINK-33650 can be tracked NOW for your location showing map with azimuth and elevation plus other details from your city location.







IsCatalogInMostPopularTable: catalog: 63321, numindb: 2
Update: records affected: 1



GetName: 63321 STARLINK-33650

Hit Count: updated at: Tue, 10 Feb 2026 04:00:27 GMT